| time (UTC) | temp C | wind direction | speed KPH | gust KPH | rain 1hr cm | rain 24hr cm | rain mn cm | humidity % | barometer mb |
| 20260906174501 | 23 | 220 | 1.6 | 6.4 | 0.00 | 0.00 | 0.00 | 35 | 1016.2 |
| 20260906173002 | 22 | 169 | 1.6 | 6.4 | 0.00 | 0.00 | 0.00 | 34 | 1016.1 |
| 20260906171501 | 22 | 77 | 0.0 | 6.4 | 0.00 | 0.00 | 0.00 | 38 | 1016.0 |
| 20260906170009 | 22 | 60 | 1.6 | 4.8 | 0.00 | 0.00 | 0.00 | 37 | 1016.0 |
| 20260906164501 | 21 | 73 | 1.6 | 6.4 | 0.00 | 0.00 | 0.00 | 40 | 1016.0 |
| 20260906163001 | 21 | 322 | 1.6 | 6.4 | 0.00 | 0.00 | 0.00 | 48 | 1016.1 |
| 20260906161502 | 20 | 53 | 3.2 | 11.3 | 0.00 | 0.00 | 0.00 | 52 | 1015.9 |
| 20260906160001 | 19 | 35 | 3.2 | 11.3 | 0.00 | 0.00 | 0.00 | 53 | 1016.0 |
| 20260906154603 | 18 | 56 | 3.2 | 6.4 | 0.00 | 0.00 | 0.00 | 57 | 1016.0 |
| 20260906153105 | 17 | 16 | 1.6 | 9.7 | 0.00 | 0.00 | 0.00 | 62 | 1016.0 |
| 20260906151600 | 17 | 54 | 3.2 | 6.4 | 0.00 | 0.00 | 0.00 | 66 | 1015.9 |
| 20260906150105 | 15 | 79 | 3.2 | 8.0 | 0.00 | 0.00 | 0.00 | 70 | 1016.0 |
| 20260906150003 | 15 | 27 | 3.2 | 8.0 | 0.00 | 0.00 | 0.00 | 70 | 1016.0 |
| 20260906144502 | 14 | 37 | 1.6 | 11.3 | 0.00 | 0.00 | 0.00 | 74 | 1016.0 |
| 20260906143001 | 12 | 65 | 0.0 | 4.8 | 0.00 | 0.00 | 0.00 | 78 | 1015.8 |
| 20260906141501 | 12 | 39 | 0.0 | 3.2 | 0.00 | 0.00 | 0.00 | 81 | 1015.7 |
| 20260906140004 | 11 | 10 | 0.0 | 0.0 | 0.00 | 0.00 | 0.00 | 81 | 1015.7 |
| 20260906134505 | 11 | 350 | 0.0 | 1.6 | 0.00 | 0.00 | 0.00 | 81 | 1015.7 |
| 20260906133001 | 11 | 350 | 0.0 | 1.6 | 0.00 | 0.00 | 0.00 | 81 | 1015.6 |
| 20260906131503 | 12 | 350 | 0.0 | 3.2 | 0.00 | 0.00 | 0.00 | 79 | 1015.3 |
| 20260906130001 | 12 | 11 | 0.0 | 3.2 | 0.00 | 0.00 | 0.00 | 78 | 1015.2 |
| 20260906124600 | 12 | 3 | 0.0 | 3.2 | 0.00 | 0.00 | 0.00 | 79 | 1015.0 |
| 20260906123100 | 12 | 352 | 0.0 | 3.2 | 0.00 | 0.00 | 0.00 | 78 | 1015.0 |
| 20260906121604 | 12 | 335 | 0.0 | 1.6 | 0.00 | 0.00 | 0.00 | 77 | 1015.1 |
| 20260906120100 | 13 | 335 | 0.0 | 3.2 | 0.00 | 0.00 | 0.00 | 76 | 1015.1 |
| 20260906120002 | 13 | 334 | 0.0 | 3.2 | 0.00 | 0.00 | 0.00 | 76 | 1015.1 |
| 20260906114506 | 13 | 349 | 0.0 | 6.4 | 0.00 | 0.00 | 0.00 | 75 | 1015.1 |
| 20260906113003 | 13 | 46 | 0.0 | 4.8 | 0.00 | 0.00 | 0.00 | 75 | 1014.9 |
| 20260906111501 | 13 | 33 | 0.0 | 1.6 | 0.00 | 0.00 | 0.00 | 75 | 1015.0 |
| 20260906104628 | 13 | 347 | 0.0 | 1.6 | 0.00 | 0.00 | 0.00 | 74 | 1015.1 |
| 20260906103104 | 13 | 326 | 0.0 | 1.6 | 0.00 | 0.00 | 0.00 | 72 | 1015.1 |
| 20260906101600 | 14 | 326 | 0.0 | 3.2 | 0.00 | 0.00 | 0.00 | 72 | 1015.2 |
| 20260906100100 | 14 | 2 | 0.0 | 3.2 | 0.00 | 0.00 | 0.00 | 71 | 1015.3 |
| 20260906094600 | 14 | 7 | 0.0 | 3.2 | 0.00 | 0.00 | 0.00 | 71 | 1015.2 |
| 20260906093121 | 14 | 343 | 0.0 | 6.4 | 0.00 | 0.00 | 0.00 | 70 | 1015.2 |
| 20260906091600 | 14 | 19 | 3.2 | 6.4 | 0.00 | 0.00 | 0.00 | 71 | 1015.3 |
| 20260906090100 | 14 | 49 | 1.6 | 8.0 | 0.00 | 0.00 | 0.00 | 72 | 1015.4 |
| 20260906084600 | 13 | 23 | 1.6 | 6.4 | 0.00 | 0.00 | 0.00 | 74 | 1015.4 |
| 20260906084501 | 13 | 54 | 1.6 | 6.4 | 0.00 | 0.00 | 0.00 | 74 | 1015.5 |
| 20260906083102 | 13 | 41 | 0.0 | 4.8 | 0.00 | 0.00 | 0.00 | 75 | 1015.6 |
| 20260906081600 | 13 | 43 | 0.0 | 0.0 | 0.00 | 0.00 | 0.00 | 76 | 1015.6 |
| 20260906080104 | 13 | 46 | 0.0 | 1.6 | 0.00 | 0.00 | 0.00 | 77 | 1015.6 |
| 20260906080002 | 13 | 30 | 0.0 | 1.6 | 0.00 | 0.00 | 0.00 | 77 | 1015.6 |
| 20260906074503 | 12 | 47 | 0.0 | 3.2 | 0.00 | 0.00 | 0.00 | 78 | 1015.7 |
| 20260906073001 | 12 | 47 | 0.0 | 1.6 | 0.00 | 0.00 | 0.00 | 78 | 1015.7 |
| 20260906071501 | 12 | 47 | 0.0 | 3.2 | 0.00 | 0.00 | 0.00 | 78 | 1015.8 |
| 20260906070002 | 13 | 47 | 0.0 | 0.0 | 0.00 | 0.00 | 0.00 | 78 | 1016.0 |
| 20260906064502 | 13 | 47 | 0.0 | 0.0 | 0.00 | 0.00 | 0.00 | 77 | 1015.9 |
| 20260906063003 | 13 | 47 | 0.0 | 0.0 | 0.00 | 0.00 | 0.00 | 76 | 1016.0 |
| 20260906061502 | 13 | 47 | 0.0 | 3.2 | 0.00 | 0.00 | 0.00 | 75 | 1016.1 |
| 20260906060005 | 14 | 47 | 0.0 | 1.6 | 0.00 | 0.00 | 0.00 | 73 | 1016.0 |
| 20260906054503 | 15 | 47 | 0.0 | 3.2 | 0.00 | 0.00 | 0.00 | 70 | 1015.9 |
| 20260906053002 | 15 | 47 | 0.0 | 0.0 | 0.00 | 0.00 | 0.00 | 67 | 1015.8 |
| 20260906051502 | 15 | 47 | 0.0 | 3.2 | 0.00 | 0.00 | 0.00 | 67 | 1015.8 |
| 20260906050001 | 15 | 30 | 0.0 | 3.2 | 0.00 | 0.00 | 0.00 | 67 | 1015.8 |
| 20260906044502 | 15 | 44 | 0.0 | 1.6 | 0.00 | 0.00 | 0.00 | 68 | 1015.7 |
| 20260906043001 | 16 | 44 | 0.0 | 1.6 | 0.00 | 0.00 | 0.00 | 67 | 1015.6 |
| 20260906041503 | 16 | 44 | 0.0 | 3.2 | 0.00 | 0.00 | 0.00 | 65 | 1015.6 |
| 20260906040002 | 17 | 44 | 0.0 | 1.6 | 0.00 | 0.00 | 0.00 | 63 | 1015.5 |
| 20260906034501 | 17 | 44 | 0.0 | 3.2 | 0.00 | 0.00 | 0.00 | 60 | 1015.4 |
| 20260906033002 | 18 | 75 | 1.6 | 3.2 | 0.00 | 0.00 | 0.00 | 58 | 1015.3 |
| 20260906031503 | 18 | 174 | 0.0 | 1.6 | 0.00 | 0.00 | 0.00 | 55 | 1015.2 |
| 20260906030001 | 20 | 174 | 0.0 | 1.6 | 0.00 | 0.00 | 0.00 | 52 | 1014.9 |
| 20260906024501 | 21 | 174 | 0.0 | 1.6 | 0.00 | 0.00 | 0.00 | 47 | 1015.0 |
| 20260906023008 | 22 | 174 | 0.0 | 0.0 | 0.00 | 0.00 | 0.00 | 44 | 1015.0 |
| 20260906021502 | 22 | 174 | 0.0 | 3.2 | 0.00 | 0.00 | 0.00 | 42 | 1015.0 |
| 20260906020001 | 23 | 150 | 0.0 | 3.2 | 0.00 | 0.00 | 0.00 | 42 | 1015.1 |
| 20260906014502 | 23 | 177 | 0.0 | 3.2 | 0.00 | 0.00 | 0.00 | 39 | 1015.0 |
| 20260906013002 | 23 | 208 | 1.6 | 3.2 | 0.00 | 0.00 | 0.00 | 39 | 1015.1 |
| 20260906011502 | 23 | 268 | 0.0 | 3.2 | 0.00 | 0.00 | 0.00 | 38 | 1015.2 |
| 20260906010002 | 24 | 143 | 1.6 | 4.8 | 0.00 | 0.00 | 0.00 | 37 | 1015.2 |
| 20260906004502 | 24 | 220 | 1.6 | 4.8 | 0.00 | 0.00 | 0.00 | 37 | 1015.4 |
| 20260906003002 | 25 | 217 | 0.0 | 4.8 | 0.00 | 0.00 | 0.00 | 37 | 1015.6 |
| 20260906001500 | 24 | 220 | 1.6 | 6.4 | 0.00 | 0.00 | 0.00 | 38 | 1015.6 |
| 20260906000002 | 24 | 133 | 1.6 | 6.4 | 0.00 | 0.00 | 0.00 | 37 | 1015.6 |
| 20260905234503 | 24 | 156 | 1.6 | 6.4 | 0.00 | 0.00 | 0.00 | 37 | 1015.6 |
| 20260905233005 | 25 | 183 | 1.6 | 4.8 | 0.00 | 0.00 | 0.00 | 36 | 1015.4 |
| 20260905231502 | 25 | 227 | 3.2 | 9.7 | 0.00 | 0.00 | 0.00 | 36 | 1015.6 |
| 20260905230002 | 25 | 185 | 3.2 | 6.4 | 0.00 | 0.00 | 0.00 | 35 | 1015.8 |
| 20260905224501 | 25 | 124 | 1.6 | 6.4 | 0.00 | 0.00 | 0.00 | 35 | 1016.2 |
| 20260905223002 | 25 | 129 | 1.6 | 11.3 | 0.00 | 0.00 | 0.00 | 34 | 1016.1 |
| 20260905221504 | 25 | 159 | 3.2 | 11.3 | 0.00 | 0.00 | 0.00 | 33 | 1016.2 |
| 20260905220002 | 26 | 268 | 1.6 | 6.4 | 0.00 | 0.00 | 0.00 | 34 | 1016.2 |
| 20260905214501 | 25 | 239 | 3.2 | 8.0 | 0.00 | 0.00 | 0.00 | 34 | 1016.3 |
| 20260905213002 | 23 | 150 | 1.6 | 12.9 | 0.00 | 0.00 | 0.00 | 34 | 1016.4 |
| 20260905211506 | 23 | 168 | 1.6 | 6.4 | 0.00 | 0.00 | 0.00 | 31 | 1016.5 |
| 20260905210002 | 23 | 107 | 1.6 | 6.4 | 0.00 | 0.00 | 0.00 | 36 | 1016.7 |
| 20260905204601 | 22 | 120 | 1.6 | 9.7 | 0.00 | 0.00 | 0.00 | 37 | 1016.8 |
| 20260905203103 | 22 | 216 | 1.6 | 8.0 | 0.00 | 0.00 | 0.00 | 40 | 1016.7 |
| 20260905201601 | 22 | 186 | 0.0 | 4.8 | 0.00 | 0.00 | 0.00 | 44 | 1016.8 |
| 20260905200107 | 22 | 71 | 1.6 | 6.4 | 0.00 | 0.00 | 0.00 | 46 | 1016.8 |
| 20260905200003 | 22 | 95 | 0.0 | 4.8 | 0.00 | 0.00 | 0.00 | 45 | 1016.8 |
| 20260905194502 | 22 | 192 | 3.2 | 6.4 | 0.00 | 0.00 | 0.00 | 46 | 1016.8 |
| 20260905193002 | 22 | 144 | 1.6 | 6.4 | 0.00 | 0.00 | 0.00 | 48 | 1016.8 |
| 20260905191500 | 22 | 240 | 3.2 | 6.4 | 0.00 | 0.00 | 0.00 | 49 | 1016.8 |
| 20260905190001 | 21 | 162 | 3.2 | 6.4 | 0.00 | 0.00 | 0.00 | 51 | 1016.7 |
| 20260905184506 | 21 | 198 | 4.8 | 8.0 | 0.00 | 0.00 | 0.00 | 51 | 1016.7 |
| 20260905183003 | 21 | 225 | 4.8 | 8.0 | 0.00 | 0.00 | 0.00 | 53 | 1016.5 |
| 20260905181501 | 21 | 260 | 3.2 | 8.0 | 0.00 | 0.00 | 0.00 | 53 | 1016.5 |
| 20260905180002 | 21 | 201 | 1.6 | 6.4 | 0.00 | 0.00 | 0.00 | 53 | 1016.5 |